User: anonymous   Login
Location: Unspecified
(0.0000°N, 0.0000°E)
Time: 17:26:38
(UTC+00:00)
Language:

CUSAT 1 - Orbit

View from above orbital plane
View from above orbital plane
View from above satellite
View from above satellite

Ground track
Ground track

The orbit data is extracted from the following two-line orbital elements,

1 39266U 13055B   18116.29444876  .00006783  00000-0  18619-3 0  9993
2 39266  80.9884  41.5529 0651525  32.3734 331.5727 14.31933249236768
Epoch (UTC): 26 April 2018 07:04:00
Eccentricity: 0.0651525
inclination: 80.9884°
perigee height: 318 km
apogee height: 1252 km
right ascension of ascending node: 41.5529°
argument of perigee: 32.3734°
revolutions per day: 14.31933249
mean anomaly at epoch: 331.5727°
orbit number at epoch: 23676

The dashed part of the orbit path shows where the satellite is in the earth's shadow,  

DLR